User: anonymous   Login
Location: Stonelick Lake State Park
(39.2170°N, 84.0850°W)
Time: 11:32:49
(UTC-04:00)
Language:

Lacrosse 5 - Orbit

View from above orbital plane
View from above orbital plane
View from above satellite
View from above satellite

Ground track
Ground track

The orbit data is extracted from the following two-line orbital elements,

1 28646U 05016A   16268.41704490 0.00000000  00000-0  00000-0 0    03
2 28646  57.0130  37.8794 0006000 112.5185 247.4814 14.51933632    08
Epoch (UTC): 24 September 2016 10:00:32
Eccentricity: 0.0006000
inclination: 57.0130°
perigee height: 715 km
apogee height: 723 km
right ascension of ascending node: 37.8794°
argument of perigee: 112.5185°
revolutions per day: 14.51933632
mean anomaly at epoch: 247.4814°
orbit number at epoch: 0

The dashed part of the orbit path shows where the satellite is in the earth's shadow,  

DLR